| time (UTC) | temp F | wind direction | speed MPH | gust MPH | rain 1hr in | rain 24hr in | rain mn in | humidity % | barometer mb |
| 20260504070119 | 41 | 276 | 0.0 | 0.0 | 0.00 | 0.00 | 0.00 | 83 | 1016.5 |
| 20260504050508 | 41 | 314 | 0.0 | 0.0 | 0.00 | 0.00 | 0.00 | 79 | 1017.2 |
| 20260504050005 | 41 | 315 | 0.0 | 0.0 | 0.00 | 0.00 | 0.00 | 78 | 1017.1 |
| 20260504045501 | 42 | 315 | 0.0 | 0.0 | 0.00 | 0.00 | 0.00 | 78 | 1017.2 |
| 20260504044957 | 41 | 314 | 0.0 | 0.0 | 0.00 | 0.00 | 0.00 | 78 | 1016.7 |
| 20260504044454 | 42 | 314 | 0.0 | 0.0 | 0.00 | 0.00 | 0.00 | 77 | 1017.0 |
| 20260504043951 | 42 | 314 | 0.0 | 0.0 | 0.00 | 0.00 | 0.00 | 77 | 1017.0 |
| 20260504043448 | 42 | 314 | 0.0 | 0.0 | 0.00 | 0.00 | 0.00 | 76 | 1016.8 |
| 20260504042946 | 41 | 314 | 0.0 | 0.0 | 0.00 | 0.00 | 0.00 | 77 | 1017.1 |
| 20260504042442 | 41 | 315 | 0.0 | 0.0 | 0.00 | 0.00 | 0.00 | 77 | 1016.8 |
| 20260504041939 | 41 | 315 | 0.0 | 0.0 | 0.00 | 0.00 | 0.00 | 77 | 1017.0 |
| 20260504041435 | 41 | 315 | 0.0 | 0.0 | 0.00 | 0.00 | 0.00 | 76 | 1017.0 |
| 20260504040931 | 41 | 314 | 0.0 | 0.0 | 0.00 | 0.00 | 0.00 | 76 | 1017.1 |
| 20260504040429 | 41 | 314 | 0.0 | 0.0 | 0.00 | 0.00 | 0.00 | 77 | 1017.0 |
| 20260504035925 | 41 | 314 | 0.0 | 0.0 | 0.00 | 0.00 | 0.00 | 76 | 1017.0 |
| 20260504035423 | 41 | 314 | 0.0 | 0.0 | 0.00 | 0.00 | 0.00 | 76 | 1016.8 |
| 20260504034919 | 41 | 315 | 0.0 | 0.0 | 0.00 | 0.00 | 0.00 | 75 | 1017.0 |
| 20260504034417 | 41 | 314 | 0.0 | 0.0 | 0.00 | 0.00 | 0.00 | 74 | 1017.0 |
| 20260504033913 | 41 | 314 | 0.0 | 0.0 | 0.00 | 0.00 | 0.00 | 73 | 1017.0 |
| 20260504033412 | 42 | 315 | 0.0 | 0.0 | 0.00 | 0.00 | 0.00 | 73 | 1016.7 |
| 20260504032908 | 42 | 315 | 0.0 | 0.0 | 0.00 | 0.00 | 0.00 | 72 | 1016.7 |
| 20260504032405 | 42 | 315 | 0.0 | 0.0 | 0.00 | 0.00 | 0.00 | 72 | 1016.8 |
| 20260504031901 | 42 | 315 | 0.0 | 0.0 | 0.00 | 0.00 | 0.00 | 72 | 1017.0 |
| 20260504031359 | 42 | 315 | 0.0 | 0.0 | 0.00 | 0.00 | 0.00 | 71 | 1016.6 |
| 20260504030855 | 42 | 315 | 0.0 | 0.0 | 0.00 | 0.00 | 0.00 | 71 | 1016.5 |
| 20260504030353 | 42 | 315 | 0.0 | 0.0 | 0.00 | 0.00 | 0.00 | 74 | 1016.7 |
| 20260504025848 | 41 | 315 | 0.0 | 0.0 | 0.00 | 0.00 | 0.00 | 71 | 1016.6 |
| 20260504025345 | 42 | 315 | 0.0 | 0.0 | 0.00 | 0.00 | 0.00 | 71 | 1016.7 |
| 20260504024842 | 41 | 315 | 0.0 | 0.0 | 0.00 | 0.00 | 0.00 | 70 | 1016.7 |
| 20260504024338 | 42 | 315 | 0.0 | 0.0 | 0.00 | 0.00 | 0.00 | 71 | 1016.6 |
| 20260504023836 | 41 | 315 | 0.0 | 0.0 | 0.00 | 0.00 | 0.00 | 71 | 1016.7 |
| 20260504023333 | 41 | 315 | 0.0 | 0.0 | 0.00 | 0.00 | 0.00 | 71 | 1016.7 |
| 20260504022828 | 41 | 315 | 0.0 | 0.0 | 0.00 | 0.00 | 0.00 | 69 | 1016.7 |
| 20260504022325 | 41 | 315 | 0.0 | 0.0 | 0.00 | 0.00 | 0.00 | 71 | 1016.7 |
| 20260504021821 | 41 | 315 | 0.0 | 0.0 | 0.00 | 0.00 | 0.00 | 71 | 1016.8 |
| 20260504021319 | 41 | 315 | 0.0 | 0.0 | 0.00 | 0.00 | 0.00 | 69 | 1016.6 |
| 20260504020816 | 41 | 315 | 0.0 | 0.0 | 0.00 | 0.00 | 0.00 | 73 | 1016.6 |
| 20260504020313 | 41 | 315 | 0.0 | 0.0 | 0.00 | 0.00 | 0.00 | 72 | 1016.6 |
| 20260504015809 | 41 | 315 | 0.0 | 0.0 | 0.00 | 0.00 | 0.00 | 72 | 1016.7 |
| 20260504015305 | 41 | 315 | 0.0 | 0.0 | 0.00 | 0.00 | 0.00 | 71 | 1016.6 |
| 20260504014801 | 41 | 315 | 0.0 | 0.0 | 0.00 | 0.00 | 0.00 | 71 | 1016.7 |
| 20260504014257 | 42 | 315 | 0.0 | 0.0 | 0.00 | 0.00 | 0.00 | 71 | 1016.6 |
| 20260504013755 | 42 | 315 | 0.0 | 0.0 | 0.00 | 0.00 | 0.00 | 73 | 1016.5 |
| 20260504013253 | 42 | 315 | 0.0 | 0.0 | 0.00 | 0.00 | 0.00 | 68 | 1016.4 |
| 20260504012749 | 42 | 315 | 0.0 | 0.0 | 0.00 | 0.00 | 0.00 | 68 | 1016.3 |
| 20260504012247 | 43 | 315 | 0.0 | 0.0 | 0.00 | 0.00 | 0.00 | 70 | 1016.2 |
| 20260504011744 | 43 | 315 | 0.0 | 0.0 | 0.00 | 0.00 | 0.00 | 66 | 1016.3 |
| 20260504011240 | 43 | 315 | 0.0 | 0.0 | 0.00 | 0.00 | 0.00 | 65 | 1016.5 |
| 20260504010736 | 44 | 315 | 0.0 | 0.0 | 0.00 | 0.00 | 0.00 | 67 | 1016.4 |
| 20260504010232 | 44 | 315 | 0.0 | 0.0 | 0.00 | 0.00 | 0.00 | 60 | 1016.2 |
| 20260504005729 | 44 | 315 | 0.0 | 0.0 | 0.00 | 0.00 | 0.00 | 60 | 1016.1 |
| 20260504005226 | 45 | 315 | 0.0 | 0.0 | 0.00 | 0.00 | 0.00 | 63 | 1016.0 |
| 20260504004724 | 45 | 315 | 0.0 | 0.0 | 0.00 | 0.00 | 0.00 | 65 | 1015.9 |
| 20260504004220 | 45 | 315 | 0.0 | 0.0 | 0.00 | 0.00 | 0.00 | 60 | 1015.9 |
| 20260504003717 | 46 | 315 | 0.0 | 0.0 | 0.00 | 0.00 | 0.00 | 63 | 1016.2 |
| 20260504003214 | 46 | 315 | 0.0 | 0.0 | 0.00 | 0.00 | 0.00 | 62 | 1016.0 |
| 20260504002711 | 47 | 315 | 0.0 | 0.0 | 0.00 | 0.00 | 0.00 | 57 | 1015.9 |
| 20260504002208 | 47 | 315 | 0.0 | 0.0 | 0.00 | 0.00 | 0.00 | 57 | 1016.0 |
| 20260504001706 | 48 | 315 | 0.0 | 0.0 | 0.00 | 0.00 | 0.00 | 56 | 1015.8 |
| 20260504001202 | 48 | 315 | 0.0 | 0.0 | 0.00 | 0.00 | 0.00 | 51 | 1016.0 |
| 20260504000659 | 49 | 315 | 0.0 | 0.0 | 0.00 | 0.00 | 0.00 | 53 | 1016.1 |
| 20260504000156 | 50 | 315 | 0.0 | 0.0 | 0.00 | 0.00 | 0.00 | 51 | 1015.9 |
| 20260503235654 | 51 | 310 | 0.0 | 0.0 | 0.00 | 0.00 | 0.00 | 48 | 1015.9 |
| 20260503235151 | 52 | 268 | 0.0 | 0.0 | 0.00 | 0.00 | 0.00 | 46 | 1015.9 |
| 20260503234649 | 53 | 273 | 0.0 | 0.0 | 0.00 | 0.00 | 0.00 | 43 | 1016.0 |
| 20260503234147 | 54 | 6 | 0.0 | 0.0 | 0.00 | 0.00 | 0.00 | 40 | 1016.0 |
| 20260503233643 | 55 | 309 | 0.0 | 3.0 | 0.00 | 0.00 | 0.00 | 36 | 1016.0 |
| 20260503233139 | 55 | 307 | 2.0 | 4.0 | 0.00 | 0.00 | 0.00 | 36 | 1016.1 |
| 20260503232636 | 55 | 310 | 2.0 | 2.0 | 0.00 | 0.00 | 0.00 | 35 | 1016.2 |
| 20260503232133 | 55 | 322 | 0.0 | 1.0 | 0.00 | 0.00 | 0.00 | 36 | 1016.1 |
| 20260503231631 | 55 | 274 | 0.0 | 2.0 | 0.00 | 0.00 | 0.00 | 35 | 1016.0 |
| 20260503231127 | 55 | 334 | 0.0 | 4.0 | 0.00 | 0.00 | 0.00 | 33 | 1016.1 |
| 20260503230625 | 55 | 255 | 0.0 | 3.0 | 0.00 | 0.00 | 0.00 | 34 | 1016.0 |
| 20260503230122 | 55 | 242 | 0.0 | 3.0 | 0.00 | 0.00 | 0.00 | 35 | 1016.1 |
| 20260503225619 | 55 | 320 | 1.0 | 4.0 | 0.00 | 0.00 | 0.00 | 33 | 1016.4 |
| 20260503225118 | 55 | 299 | 5.0 | 8.0 | 0.00 | 0.00 | 0.00 | 32 | 1016.4 |
| 20260503224616 | 55 | 177 | 3.0 | 7.0 | 0.00 | 0.00 | 0.00 | 32 | 1016.4 |
| 20260503224114 | 55 | 317 | 0.0 | 2.0 | 0.00 | 0.00 | 0.00 | 32 | 1016.4 |
| 20260503223612 | 55 | 319 | 5.0 | 7.0 | 0.00 | 0.00 | 0.00 | 32 | 1016.7 |
| 20260503223107 | 55 | 272 | 3.0 | 6.0 | 0.00 | 0.00 | 0.00 | 34 | 1016.3 |
| 20260503222606 | 55 | 176 | 2.0 | 7.0 | 0.00 | 0.00 | 0.00 | 32 | 1016.4 |
| 20260503222103 | 56 | 267 | 2.0 | 4.0 | 0.00 | 0.00 | 0.00 | 33 | 1016.4 |
| 20260503221601 | 56 | 221 | 3.0 | 4.0 | 0.00 | 0.00 | 0.00 | 38 | 1016.5 |
| 20260503221059 | 56 | 301 | 1.0 | 6.0 | 0.00 | 0.00 | 0.00 | 33 | 1016.3 |
| 20260503220554 | 57 | 315 | 5.0 | 7.0 | 0.00 | 0.00 | 0.00 | 33 | 1016.1 |
| 20260503220052 | 57 | 326 | 2.0 | 4.0 | 0.00 | 0.00 | 0.00 | 33 | 1016.2 |
| 20260503215549 | 57 | 324 | 0.0 | 8.0 | 0.00 | 0.00 | 0.00 | 32 | 1016.3 |
| 20260503215046 | 58 | 108 | 0.0 | 2.0 | 0.00 | 0.00 | 0.00 | 34 | 1016.1 |
| 20260503214544 | 57 | 338 | 3.0 | 6.0 | 0.00 | 0.00 | 0.00 | 31 | 1016.2 |
| 20260503214040 | 56 | 333 | 4.0 | 6.0 | 0.00 | 0.00 | 0.00 | 31 | 1016.2 |
| 20260503213539 | 56 | 251 | 5.0 | 10.0 | 0.00 | 0.00 | 0.00 | 33 | 1016.3 |
| 20260503213035 | 57 | 294 | 6.0 | 7.0 | 0.00 | 0.00 | 0.00 | 31 | 1016.4 |
| 20260503212532 | 57 | 308 | 5.0 | 6.0 | 0.00 | 0.00 | 0.00 | 31 | 1016.5 |
| 20260503212030 | 57 | 351 | 1.0 | 3.0 | 0.00 | 0.00 | 0.00 | 32 | 1016.5 |
| 20260503211526 | 57 | 313 | 2.0 | 8.0 | 0.00 | 0.00 | 0.00 | 31 | 1016.6 |
| 20260503211022 | 58 | 287 | 1.0 | 4.0 | 0.00 | 0.00 | 0.00 | 30 | 1016.5 |
| 20260503210519 | 57 | 351 | 0.0 | 3.0 | 0.00 | 0.00 | 0.00 | 33 | 1016.4 |
| 20260503210015 | 57 | 313 | 6.0 | 7.0 | 0.00 | 0.00 | 0.00 | 30 | 1016.6 |
| 20260503205512 | 57 | 328 | 1.0 | 4.0 | 0.00 | 0.00 | 0.00 | 35 | 1016.7 |
| 20260503205008 | 57 | 248 | 2.0 | 7.0 | 0.00 | 0.00 | 0.00 | 36 | 1016.7 |
| 20260503204505 | 58 | 16 | 0.0 | 3.0 | 0.00 | 0.00 | 0.00 | 32 | 1016.4 |
| 20260503204001 | 57 | 302 | 6.0 | 7.0 | 0.00 | 0.00 | 0.00 | 32 | 1016.5 |
| 20260503203459 | 56 | 250 | 2.0 | 8.0 | 0.00 | 0.00 | 0.00 | 37 | 1016.6 |
| 20260503202955 | 56 | 119 | 5.0 | 6.0 | 0.00 | 0.00 | 0.00 | 30 | 1017.1 |
| 20260503202454 | 56 | 147 | 3.0 | 9.0 | 0.00 | 0.00 | 0.00 | 31 | 1016.8 |
| 20260503201952 | 57 | 298 | 4.0 | 4.0 | 0.00 | 0.00 | 0.00 | 31 | 1017.0 |
| 20260503201449 | 57 | 302 | 2.0 | 7.0 | 0.00 | 0.00 | 0.00 | 35 | 1017.0 |
| 20260503200947 | 57 | 192 | 2.0 | 8.0 | 0.00 | 0.00 | 0.00 | 32 | 1017.1 |
| 20260503200443 | 56 | 318 | 1.0 | 4.0 | 0.00 | 0.00 | 0.00 | 35 | 1017.1 |
| 20260503195940 | 57 | 153 | 5.0 | 6.0 | 0.00 | 0.00 | 0.00 | 32 | 1017.3 |
| 20260503195437 | 57 | 110 | 1.0 | 7.0 | 0.00 | 0.00 | 0.00 | 32 | 1017.4 |
| 20260503194933 | 57 | 316 | 2.0 | 6.0 | 0.00 | 0.00 | 0.00 | 35 | 1017.6 |
| 20260503194430 | 58 | 242 | 5.0 | 6.0 | 0.00 | 0.00 | 0.00 | 33 | 1017.7 |
| 20260503193926 | 56 | 297 | 4.0 | 6.0 | 0.00 | 0.00 | 0.00 | 35 | 1017.6 |
| 20260503193421 | 56 | 174 | 3.0 | 9.0 | 0.00 | 0.00 | 0.00 | 32 | 1017.8 |
| 20260503192917 | 55 | 301 | 1.0 | 4.0 | 0.00 | 0.00 | 0.00 | 36 | 1017.8 |
| 20260503192414 | 54 | 155 | 5.0 | 13.0 | 0.00 | 0.00 | 0.00 | 34 | 1017.7 |
| 20260503191909 | 55 | 326 | 2.0 | 9.0 | 0.00 | 0.00 | 0.00 | 35 | 1017.8 |
| 20260503191408 | 55 | 44 | 5.0 | 8.0 | 0.00 | 0.00 | 0.00 | 34 | 1018.0 |
| 20260503190903 | 54 | 327 | 1.0 | 4.0 | 0.00 | 0.00 | 0.00 | 34 | 1018.1 |
| 20260503190401 | 55 | 291 | 9.0 | 9.0 | 0.00 | 0.00 | 0.00 | 35 | 1018.2 |
| 20260503185857 | 56 | 301 | 9.0 | 10.0 | 0.00 | 0.00 | 0.00 | 34 | 1018.1 |
| 20260503185354 | 55 | 214 | 2.0 | 3.0 | 0.00 | 0.00 | 0.00 | 34 | 1018.4 |
| 20260503184854 | 55 | 358 | 2.0 | 8.0 | 0.00 | 0.00 | 0.00 | 33 | 1018.1 |
| 20260503184350 | 55 | 45 | 3.0 | 6.0 | 0.00 | 0.00 | 0.00 | 35 | 1018.5 |
| 20260503183845 | 55 | 304 | 10.0 | 11.0 | 0.00 | 0.00 | 0.00 | 35 | 1018.6 |
| 20260503183343 | 55 | 319 | 2.0 | 4.0 | 0.00 | 0.00 | 0.00 | 34 | 1018.5 |
| 20260503182840 | 56 | 39 | 4.0 | 6.0 | 0.00 | 0.00 | 0.00 | 38 | 1018.5 |
| 20260503182340 | 55 | 70 | 1.0 | 7.0 | 0.00 | 0.00 | 0.00 | 36 | 1018.7 |
| 20260503181836 | 54 | 225 | 2.0 | 3.0 | 0.00 | 0.00 | 0.00 | 46 | 1018.5 |
| 20260503181333 | 53 | 143 | 3.0 | 3.0 | 0.00 | 0.00 | 0.00 | 35 | 1018.5 |
| 20260503180829 | 53 | 304 | 9.0 | 11.0 | 0.00 | 0.00 | 0.00 | 36 | 1018.9 |
| 20260503180328 | 52 | 266 | 2.0 | 9.0 | 0.00 | 0.00 | 0.00 | 37 | 1018.7 |
| 20260503175824 | 52 | 144 | 5.0 | 6.0 | 0.00 | 0.00 | 0.00 | 36 | 1018.7 |
| 20260503175322 | 53 | 316 | 2.0 | 6.0 | 0.00 | 0.00 | 0.00 | 38 | 1018.7 |
| 20260503174817 | 54 | 9 | 2.0 | 7.0 | 0.00 | 0.00 | 0.00 | 37 | 1018.9 |
| 20260503174316 | 51 | 236 | 3.0 | 4.0 | 0.00 | 0.00 | 0.00 | 43 | 1019.0 |
| 20260503173811 | 53 | 318 | 1.0 | 9.0 | 0.00 | 0.00 | 0.00 | 36 | 1019.2 |
| 20260503173307 | 53 | 335 | 0.0 | 3.0 | 0.00 | 0.00 | 0.00 | 38 | 1019.0 |
| 20260503172804 | 52 | 327 | 4.0 | 6.0 | 0.00 | 0.00 | 0.00 | 37 | 1019.3 |
| 20260503172301 | 51 | 303 | 8.0 | 8.0 | 0.00 | 0.00 | 0.00 | 36 | 1019.3 |
| 20260503171757 | 51 | 293 | 3.0 | 6.0 | 0.00 | 0.00 | 0.00 | 37 | 1019.3 |
| 20260503171254 | 51 | 263 | 4.0 | 6.0 | 0.00 | 0.00 | 0.00 | 38 | 1019.4 |
| 20260503170751 | 50 | 174 | 2.0 | 8.0 | 0.00 | 0.00 | 0.00 | 39 | 1019.7 |
| 20260503170248 | 51 | 317 | 5.0 | 6.0 | 0.00 | 0.00 | 0.00 | 39 | 1019.5 |
| 20260503160210 | 47 | 288 | 8.0 | 10.0 | 0.00 | 0.00 | 0.00 | 40 | 1020.2 |
| 20260503150641 | 46 | 308 | 2.0 | 4.0 | 0.00 | 0.00 | 0.00 | 40 | 1020.4 |
| 20260503150136 | 48 | 71 | 5.0 | 6.0 | 0.00 | 0.00 | 0.00 | 39 | 1020.1 |
| 20260503131030 | 41 | 285 | 3.0 | 4.0 | 0.00 | 0.00 | 0.00 | 56 | 1020.4 |
| 20260503130527 | 41 | 16 | 1.0 | 2.0 | 0.00 | 0.00 | 0.00 | 61 | 1020.3 |
| 20260503110418 | 27 | 10 | 0.0 | 0.0 | 0.00 | 0.00 | 0.00 | 97 | 1018.7 |
| 20260503090320 | 28 | 10 | 0.0 | 0.0 | 0.00 | 0.00 | 0.00 | 95 | 1018.0 |
| 20260503081248 | 30 | 10 | 0.0 | 0.0 | 0.00 | 0.00 | 0.00 | 94 | 1017.3 |
| 20260503080743 | 30 | 10 | 0.0 | 0.0 | 0.00 | 0.00 | 0.00 | 94 | 1017.2 |
| 20260503080242 | 30 | 10 | 0.0 | 0.0 | 0.00 | 0.00 | 0.00 | 93 | 1017.2 |